[[{"header":{"parameterUnit":"m.s-1","parameterCategory":1,"la1":30.2991,"la2":30.254,"lo1":-89.0895,"lo2":-89.0444,"dy":0.0017,"dx":0.0017,"nx":28,"ny":28,"refTime":"2025-04-22T03:00:00:Z","depth":0,"parameterNumber":2,"parameterNumberName":"U-component_of_WINDS"},"data":[0,0,0,0,0,0,0,0,0,0,0,0,0,0,0,0,0,0,0,0,0,0,0,0,0,0,0,0,0,0,0,0,0,0,0,0,0,0,0,0,0,0,0,0,0,0,0,0,0,0,0,0,0,0,0,0,0,0,-1.1942,-1.1942,0,-1.1981,-1.1982,-1.1982,-1.1981,-1.198,-1.198,-1.1979,-1.2022,-1.2024,-1.2025,0,0,0,0,0,0,0,0,0,0,0,0,0,-1.1868,-1.1869,-1.1942,-1.1942,-1.1943,-1.1981,-1.1982,-1.1982,-1.1981,-1.198,-1.198,-1.1979,-1.2022,-1.2024,-1.2026,0,0,0,0,0,0,0,0,0,0,0,0,0,-1.1903,-1.187,-1.1942,-1.1947,-1.1947,-1.1981,-1.1982,-1.1982,-1.1981,-1.198,-1.1979,-1.1979,-1.2021,-1.2023,-1.2026,-1.2058,0,0,-1.2033,-1.2035,0,0,0,0,0,0,0,0,-1.1901,-1.1906,-1.1945,-1.1946,-1.1947,-1.1975,-1.1972,-1.2008,-1.1981,-1.1968,-1.1979,-1.1978,-1.2007,-1.2011,-1.202,-1.206,-1.2062,-1.2034,-1.2035,-1.2036,-1.2037,0,0,0,0,0,0,0,-1.1899,-1.1904,-1.1957,-1.1946,-1.1947,-1.1948,-1.1952,-1.1978,-1.1992,-1.1969,-1.1969,-1.1974,-1.2008,-1.2018,-1.2021,-1.2062,-1.2034,-1.2036,-1.2037,-1.2038,-1.2132,-1.2133,0,0,0,0,0,0,-1.1895,-1.1902,-1.1956,-1.1959,-1.1922,-1.195,-1.1954,-1.1967,-1.1992,-1.1995,-1.1975,-1.1974,-1.2014,-1.2018,-1.2023,-1.2063,-1.2036,-1.2039,-1.204,-1.2131,-1.2132,-1.2133,0,0,0,0,0,0,-1.1893,-1.19,-1.1955,-1.193,-1.1937,-1.1952,-1.1966,-1.1968,-1.1978,-1.1996,-1.1998,-1.1982,-1.2014,-1.2019,-1.2049,-1.2064,-1.204,-1.2042,-1.213,-1.2131,-1.2133,-1.2143,0,0,0,0,0,0,-1.1891,-1.1899,-1.1911,-1.1931,-1.1939,-1.198,-1.1967,-1.197,-1.1982,-1.1982,-1.2004,-1.2006,-1.2013,-1.2046,-1.2052,-1.2067,-1.2044,-1.2129,-1.213,-1.2132,-1.2141,-1.2144,-1.2147,0,0,0,0,0,-1.1888,-1.1912,-1.1911,-1.1918,-1.1953,-1.198,-1.1985,-1.1992,-1.1984,-1.1996,-1.2007,-1.2006,-1.2062,-1.2049,-1.2056,-1.2072,-1.2128,-1.213,-1.2132,-1.214,-1.2144,-1.2147,0,0,0,0,0,0,-1.1894,-1.1915,-1.1914,-1.1944,-1.1961,-1.198,-1.1996,-1.1996,-1.2015,-1.2013,-1.2022,-1.2027,-1.2057,-1.2068,-1.2053,-1.2105,-1.2094,-1.2097,-1.2097,-1.2101,-1.2104,-1.2101,-1.2046,0,0,0,0,0,-1.1898,-1.1918,-1.1935,-1.1961,-1.1969,-1.1981,-1.1993,-1.1997,-1.2014,-1.2021,-1.2035,-1.2052,-1.2074,-1.2088,-1.2109,-1.2143,-1.2148,-1.2157,-1.216,-1.2163,-1.2166,-1.2186,-1.2191,-1.2141,-1.2141,-1.2141,0,0,-1.1909,-1.1922,-1.1934,-1.1962,-1.1975,-1.1996,-1.1987,-1.2009,-1.2025,-1.2025,-1.2054,-1.2065,-1.2085,-1.2117,-1.2132,-1.2127,-1.2181,-1.2166,-1.2167,-1.2169,-1.2189,-1.2193,-1.2198,-1.2142,-1.2142,-1.2142,0,0,-1.1937,-1.1949,-1.1972,-1.1986,-1.2005,-1.2013,-1.2019,-1.2038,-1.2045,-1.2075,-1.2075,-1.2095,-1.2132,-1.2147,-1.2159,-1.2195,-1.2195,-1.2201,-1.2217,-1.2236,-1.224,-1.2244,-1.2258,-1.2262,-1.2204,-1.2204,-1.2205,0,-1.1948,-1.1978,-1.1984,-1.2007,-1.202,-1.202,-1.2044,-1.2057,-1.2083,-1.2092,-1.2086,-1.2133,-1.2146,-1.2183,-1.2191,-1.2201,-1.2209,-1.2199,-1.2239,-1.2243,-1.2246,-1.2259,-1.2264,-1.2205,-1.2205,-1.2205,-1.2205,0,-1.199,-1.2012,-1.2028,-1.2052,-1.2067,-1.209,-1.2101,-1.2115,-1.2118,-1.2127,-1.2158,-1.2175,-1.2199,-1.2208,-1.2211,-1.2245,-1.2242,-1.2237,-1.2226,-1.2252,-1.2264,-1.2269,-1.2206,-1.2206,-1.2206,-1.2206,0,0,-1.2024,-1.2051,-1.2057,-1.2069,-1.2091,-1.2108,-1.2132,-1.2155,-1.2168,-1.2186,-1.2207,-1.2239,-1.2235,-1.2249,-1.2254,-1.2271,-1.2299,-1.2264,-1.2265,-1.2271,-1.2339,-1.2343,-1.2348,-1.2299,-1.23,-1.2301,-1.2338,0,-1.2055,-1.2097,-1.2103,-1.214,-1.216,-1.2162,-1.2183,-1.2199,-1.2209,-1.2228,-1.2239,-1.2262,-1.2254,-1.2263,-1.228,-1.2292,-1.2313,-1.229,-1.232,-1.2321,-1.2315,-1.2355,-1.2359,-1.2392,-1.2343,-1.2344,-1.2344,0,-1.2098,-1.2116,-1.2155,-1.2175,-1.2184,-1.2203,-1.2225,-1.2244,-1.2263,-1.2269,-1.2285,-1.2288,-1.2314,-1.2302,-1.2339,-1.2323,-1.2336,-1.2344,-1.2345,-1.2349,-1.2334,-1.236,-1.2403,-1.2409,-1.2352,-1.2351,-1.2351,0,-1.2119,-1.2154,-1.2182,-1.2192,-1.2216,-1.2229,-1.224,-1.2258,-1.2272,-1.2292,-1.2302,-1.2325,-1.2338,-1.2356,-1.2366,-1.2356,-1.2403,-1.2391,-1.241,-1.2409,-1.242,-1.2419,-1.2466,-1.2427,-1.2427,-1.2427,-1.2427,0,-1.2154,-1.2178,-1.2192,-1.2209,-1.2236,-1.2244,-1.2271,-1.2282,-1.2298,-1.2319,-1.2321,-1.2341,-1.2352,-1.2374,-1.2382,-1.2412,-1.2417,-1.2424,-1.2426,-1.2424,-1.2423,-1.2432,-1.2431,-1.2428,-1.2428,-1.2428,-1.2427,0,-1.2182,-1.2193,-1.2223,-1.2243,-1.2249,-1.2269,-1.2286,-1.2304,-1.2313,-1.2339,-1.2346,-1.2361,-1.2386,-1.2398,-1.2429,-1.2435,-1.2469,-1.2469,-1.2463,-1.2463,-1.2482,-1.248,-1.2537,-1.2545,-1.25,-1.2501,-1.2501,0,-1.2204,-1.2223,-1.2245,-1.2258,-1.2269,-1.2291,-1.2305,-1.2314,-1.2329,-1.2353,-1.2368,-1.2393,-1.2414,-1.2455,-1.2469,-1.2494,-1.2495,-1.2513,-1.2499,-1.2496,-1.2496,-1.2495,-1.2498,-1.2516,-1.2516,-1.2517,-1.2517,0,-1.2243,-1.2247,-1.2267,-1.2289,-1.2306,-1.2324,-1.2342,-1.2353,-1.2365,-1.2382,-1.2408,-1.2424,-1.2456,-1.2481,-1.2507,-1.2519,-1.2521,-1.2522,-1.2527,-1.2526,-1.2521,-1.2525,-1.247,-1.252,-1.252,-1.252,-1.252,-1.2519,-1.2269,-1.2286,-1.2304,-1.2327,-1.2341,-1.2358,-1.2376,-1.2387,-1.2408,-1.2435,-1.2439,-1.2467,-1.2487,-1.2521,-1.2535,-1.2557,-1.2553,-1.2561,-1.2563,-1.2565,-1.2567,-1.2517,-1.2562,-1.2562,-1.2562,-1.2561,-1.2561,0,-1.2308,-1.232,-1.2341,-1.2365,-1.2384,-1.2383,-1.2403,-1.2418,-1.2442,-1.246,-1.2481,-1.2511,-1.2536,-1.2552,-1.2578,-1.2593,-1.2594,-1.26,-1.2599,-1.2602,-1.2568,-1.2561,-1.2598,-1.2598,-1.2598,-1.2598,-1.2598,-1.2598,-1.2331,-1.2359,-1.2366,-1.2402,-1.2414,-1.244,-1.2452,-1.2468,-1.2483,-1.2516,-1.2536,-1.2547,-1.2565,-1.2592,-1.2616,-1.262,-1.263,-1.2635,-1.264,-1.2608,-1.2604,-1.2601,-1.2594,-1.2637,-1.2637,-1.2671,-1.2672,-1.2672]},{"header":{"parameterUnit":"m.s-1","parameterCategory":1,"la1":30.2991,"la2":30.254,"lo1":-89.0895,"lo2":-89.0444,"dy":0.0017,"dx":0.0017,"nx":28,"ny":28,"refTime":"2025-04-22T03:00:00:Z","depth":0,"parameterNumber":3,"parameterNumberName":"V-component_of_WINDS"},"data":[0,0,0,0,0,0,0,0,0,0,0,0,0,0,0,0,0,0,0,0,0,0,0,0,0,0,0,0,0,0,0,0,0,0,0,0,0,0,0,0,0,0,0,0,0,0,0,0,0,0,0,0,0,0,0,0,0,0,2.3588,2.3588,0,2.3561,2.3561,2.3561,2.3526,2.3526,2.3525,2.3525,2.3497,2.3496,2.3496,0,0,0,0,0,0,0,0,0,0,0,0,0,2.3608,2.3608,2.3588,2.3588,2.3587,2.3561,2.3561,2.3561,2.3527,2.3526,2.3525,2.3525,2.3497,2.3497,2.3496,0,0,0,0,0,0,0,0,0,0,0,0,0,2.3592,2.3608,2.3588,2.3567,2.3565,2.3562,2.3561,2.3561,2.3527,2.3526,2.3525,2.3524,2.3497,2.3497,2.3496,2.3511,0,0,2.3495,2.3495,0,0,0,0,0,0,0,0,2.3593,2.3592,2.3571,2.3569,2.3566,2.3546,2.3558,2.3544,2.3527,2.3541,2.3525,2.3524,2.3514,2.3512,2.3509,2.3509,2.3508,2.3495,2.3495,2.3495,2.3495,0,0,0,0,0,0,0,2.3594,2.3593,2.3577,2.357,2.3568,2.3559,2.3556,2.3555,2.3533,2.354,2.3537,2.3535,2.3512,2.3509,2.3508,2.3508,2.3495,2.3495,2.3495,2.3494,2.3518,2.3519,0,0,0,0,0,0,2.3599,2.3594,2.3578,2.3577,2.3578,2.3559,2.3556,2.3554,2.3532,2.3528,2.3535,2.3533,2.351,2.3508,2.3507,2.3522,2.3495,2.3494,2.3494,2.3517,2.3518,2.3519,0,0,0,0,0,0,2.3599,2.3598,2.3579,2.3584,2.3581,2.356,2.3558,2.3553,2.355,2.3529,2.3525,2.3536,2.351,2.3507,2.351,2.352,2.3494,2.3494,2.3516,2.3518,2.3519,2.3552,0,0,0,0,0,0,2.36,2.3598,2.3604,2.3585,2.3581,2.3583,2.3558,2.3554,2.355,2.3547,2.3529,2.3525,2.3509,2.3511,2.351,2.3519,2.3494,2.3515,2.3517,2.3518,2.355,2.3555,2.3558,0,0,0,0,0,2.3601,2.3614,2.3604,2.3602,2.3588,2.3584,2.3582,2.3563,2.3551,2.3556,2.3542,2.3526,2.352,2.3511,2.351,2.352,2.3515,2.3516,2.3518,2.3548,2.3554,2.3558,0,0,0,0,0,0,2.3634,2.3611,2.36,2.3607,2.3598,2.3578,2.3584,2.3569,2.3563,2.356,2.3537,2.3533,2.3539,2.3529,2.352,2.3532,2.3515,2.3516,2.3538,2.3543,2.3547,2.3549,2.3493,0,0,0,0,0,2.3643,2.3642,2.3621,2.363,2.3626,2.3606,2.3604,2.359,2.3579,2.3575,2.3561,2.3551,2.3547,2.3544,2.3539,2.3549,2.3544,2.3555,2.3559,2.3563,2.3564,2.3568,2.3572,2.3525,2.3525,2.3525,0,0,2.366,2.3647,2.3648,2.3636,2.3627,2.3627,2.3603,2.3603,2.3602,2.3575,2.3576,2.3566,2.3553,2.3559,2.3561,2.3552,2.3576,2.3565,2.3568,2.3567,2.357,2.3574,2.3578,2.3527,2.3527,2.3526,0,0,2.369,2.3681,2.3686,2.3678,2.3665,2.3652,2.3653,2.3635,2.3628,2.3629,2.3608,2.3607,2.36,2.3591,2.3586,2.3614,2.3598,2.3613,2.3634,2.3637,2.3641,2.3644,2.3653,2.3657,2.3614,2.3614,2.3614,0,2.3713,2.3711,2.3691,2.3693,2.3688,2.3664,2.3669,2.3662,2.3648,2.3645,2.3635,2.3626,2.3615,2.3619,2.3625,2.3622,2.3622,2.3614,2.3642,2.3645,2.3648,2.3656,2.3659,2.3616,2.3616,2.3616,2.3616,0,2.3739,2.3738,2.3744,2.3731,2.3728,2.3731,2.3712,2.371,2.3697,2.3685,2.3686,2.3673,2.3664,2.3664,2.3651,2.3666,2.366,2.3647,2.3628,2.3654,2.3662,2.3665,2.3619,2.3618,2.3618,2.3617,0,0,2.3789,2.3765,2.3768,2.3761,2.3745,2.3744,2.3746,2.3738,2.3737,2.3728,2.3729,2.3724,2.3711,2.3705,2.3691,2.3695,2.3716,2.3681,2.368,2.3687,2.373,2.374,2.3744,2.3706,2.3707,2.3707,2.3731,0,2.3815,2.3818,2.3801,2.3808,2.3806,2.3784,2.3785,2.3775,2.3764,2.3761,2.3748,2.3745,2.3728,2.3725,2.3727,2.3713,2.3725,2.3712,2.3706,2.3706,2.3709,2.3748,2.3758,2.3782,2.3734,2.3734,2.3735,0,2.3847,2.384,2.3847,2.383,2.3829,2.3831,2.3822,2.382,2.3808,2.3799,2.3793,2.3777,2.3777,2.376,2.376,2.3752,2.3748,2.3741,2.3742,2.374,2.3721,2.3746,2.3789,2.3792,2.3739,2.3739,2.3739,0,2.3882,2.3874,2.3877,2.3873,2.3853,2.3855,2.3847,2.3834,2.3831,2.3823,2.382,2.3812,2.3808,2.3802,2.3784,2.3774,2.3786,2.3768,2.3778,2.3779,2.3781,2.3781,2.3823,2.3781,2.3781,2.3781,2.378,0,2.3913,2.3918,2.3892,2.3894,2.3899,2.3879,2.3884,2.3874,2.3863,2.3862,2.3842,2.3841,2.3818,2.3815,2.3801,2.3802,2.3801,2.3793,2.3789,2.3795,2.3796,2.3792,2.3789,2.3781,2.3781,2.3781,2.3781,0,2.3952,2.3935,2.3937,2.3919,2.3914,2.3919,2.3903,2.3903,2.3891,2.389,2.3888,2.3869,2.3864,2.3846,2.3836,2.3827,2.3832,2.3825,2.3837,2.3834,2.3845,2.3844,2.3885,2.3889,2.3845,2.3845,2.3846,0,2.3972,2.3976,2.3958,2.3956,2.3949,2.3946,2.3942,2.3923,2.3919,2.3906,2.3908,2.3902,2.3895,2.3888,2.3873,2.3865,2.3857,2.3872,2.3856,2.3861,2.3857,2.3856,2.3856,2.3876,2.3876,2.3877,2.3877,0,2.401,2.4002,2.3997,2.399,2.3986,2.3979,2.3971,2.397,2.3948,2.3945,2.394,2.3936,2.3926,2.3919,2.3909,2.39,2.3885,2.3882,2.3884,2.3889,2.3895,2.3891,2.3845,2.3881,2.3881,2.3881,2.388,2.388,2.404,2.4042,2.403,2.4025,2.4017,2.401,2.4009,2.3997,2.3992,2.3983,2.3972,2.3968,2.3956,2.3941,2.3933,2.3929,2.3921,2.3923,2.3924,2.3925,2.3927,2.3897,2.3927,2.3927,2.3927,2.3927,2.3927,0,2.4076,2.4067,2.4063,2.4053,2.4049,2.4035,2.4026,2.4023,2.402,2.401,2.4004,2.3998,2.3992,2.3976,2.3968,2.3968,2.396,2.3966,2.3966,2.3964,2.3936,2.3934,2.3972,2.3972,2.3972,2.3972,2.3972,2.3972,2.4095,2.4097,2.4087,2.4085,2.4075,2.4072,2.4067,2.406,2.4052,2.4046,2.4041,2.4031,2.4018,2.4009,2.4002,2.3998,2.3995,2.4003,2.3996,2.397,2.3966,2.3962,2.396,2.4003,2.4003,2.4025,2.4025,2.4025]}]]